Time,TemperatureF,DewpointF,PressureIn,WindDirection,WindDirectionDegrees,WindSpeedMPH,WindSpeedGustMPH,Humidity,HourlyPrecipIn,Conditions,Clouds,dailyrainin,SoftwareType,DateUTC
2013-01-10 00:00:00,53.4,43.2,30.10,SE,136,0.0,0.0,68,0.00,,,0.00,WUHU216WMR968SP,2013-01-10 08:00:00,
2013-01-10 00:05:00,53.4,43.2,30.10,SE,136,0.0,0.0,68,0.00,,,0.00,WUHU216WMR968SP,2013-01-10 08:05:00,
2013-01-10 00:10:00,53.6,43.4,30.10,SE,136,0.0,0.0,68,0.00,,,0.00,WUHU216WMR968SP,2013-01-10 08:10:00,
2013-01-10 00:15:00,53.6,43.0,30.10,SE,136,0.0,0.0,67,0.00,,,0.00,WUHU216WMR968SP,2013-01-10 08:15:00,
2013-01-10 00:20:00,53.6,43.0,30.07,East,99,2.2,3.1,67,0.00,,,0.00,WUHU216WMR968SP,2013-01-10 08:20:00,
2013-01-10 00:25:00,53.6,43.0,30.07,East,94,0.0,3.1,67,0.00,,,0.00,WUHU216WMR968SP,2013-01-10 08:25:00,
2013-01-10 00:30:00,53.4,43.2,30.07,East,87,2.2,3.1,68,0.00,,,0.00,WUHU216WMR968SP,2013-01-10 08:30:00,
2013-01-10 00:35:00,53.4,43.2,30.07,East,87,2.2,3.6,68,0.00,,,0.00,WUHU216WMR968SP,2013-01-10 08:35:00,
2013-01-10 00:40:00,53.4,43.2,30.07,East,84,0.0,3.6,68,0.00,,,0.00,WUHU216WMR968SP,2013-01-10 08:40:00,
2013-01-10 00:45:00,53.4,43.2,30.07,East,84,0.0,3.6,68,0.00,,,0.00,WUHU216WMR968SP,2013-01-10 08:45:00,
2013-01-10 00:50:00,53.4,43.2,30.07,East,84,0.0,0.0,68,0.00,,,0.00,WUHU216WMR968SP,2013-01-10 08:50:00,
2013-01-10 00:55:00,53.4,43.2,30.07,East,84,0.0,0.0,68,0.00,,,0.00,WUHU216WMR968SP,2013-01-10 08:55:00,
2013-01-10 01:00:00,53.4,43.2,30.07,East,84,0.0,0.0,68,0.00,,,0.00,WUHU216WMR968SP,2013-01-10 09:00:00,
2013-01-10 01:05:00,53.6,43.0,30.07,East,84,0.0,0.0,67,0.00,,,0.00,WUHU216WMR968SP,2013-01-10 09:05:00,
2013-01-10 01:10:00,53.6,43.0,30.07,East,84,0.0,0.0,67,0.00,,,0.00,WUHU216WMR968SP,2013-01-10 09:10:00,
2013-01-10 01:15:00,53.6,43.0,30.07,East,84,0.0,0.0,67,0.00,,,0.00,WUHU216WMR968SP,2013-01-10 09:15:00,
2013-01-10 01:20:00,53.6,43.0,30.07,East,84,0.0,0.0,67,0.00,,,0.00,WUHU216WMR968SP,2013-01-10 09:20:00,
2013-01-10 01:25:00,53.6,43.0,30.07,East,84,0.0,0.0,67,0.00,,,0.00,WUHU216WMR968SP,2013-01-10 09:25:00,
2013-01-10 01:30:00,53.6,43.0,30.07,East,84,0.0,0.0,67,0.00,,,0.00,WUHU216WMR968SP,2013-01-10 09:30:00,
2013-01-10 01:35:00,53.6,43.0,30.07,East,84,0.0,0.0,67,0.00,,,0.00,WUHU216WMR968SP,2013-01-10 09:35:00,
2013-01-10 01:40:00,53.6,43.0,30.07,East,84,0.0,0.0,67,0.00,,,0.00,WUHU216WMR968SP,2013-01-10 09:40:00,
2013-01-10 01:45:00,53.6,43.0,30.07,East,84,0.0,0.0,67,0.00,,,0.00,WUHU216WMR968SP,2013-01-10 09:45:00,
2013-01-10 01:50:00,53.6,43.4,30.07,East,84,0.0,0.0,68,0.00,,,0.00,WUHU216WMR968SP,2013-01-10 09:50:00,
2013-01-10 01:55:00,53.6,43.4,30.07,East,84,0.0,0.0,68,0.00,,,0.00,WUHU216WMR968SP,2013-01-10 09:55:00,
2013-01-10 02:00:00,53.8,43.2,30.07,East,84,0.0,0.0,67,0.00,,,0.00,WUHU216WMR968SP,2013-01-10 10:00:00,
2013-01-10 02:05:00,53.8,43.2,30.07,East,84,0.0,0.0,67,0.00,,,0.00,WUHU216WMR968SP,2013-01-10 10:05:00,
2013-01-10 02:10:00,53.8,43.6,30.07,East,84,0.0,0.0,68,0.00,,,0.00,WUHU216WMR968SP,2013-01-10 10:10:00,
2013-01-10 02:15:00,54.0,43.8,30.07,East,84,0.0,0.0,68,0.00,,,0.00,WUHU216WMR968SP,2013-01-10 10:15:00,
2013-01-10 02:20:00,54.0,43.8,30.07,East,84,0.0,0.0,68,0.00,,,0.00,WUHU216WMR968SP,2013-01-10 10:20:00,
2013-01-10 02:25:00,53.8,43.6,30.07,East,85,0.0,0.0,68,0.00,,,0.00,WUHU216WMR968SP,2013-01-10 10:25:00,
2013-01-10 02:30:00,53.8,43.6,30.07,ESE,111,0.0,3.1,68,0.00,,,0.00,WUHU216WMR968SP,2013-01-10 10:30:00,
2013-01-10 02:35:00,53.6,43.4,30.07,ESE,114,0.0,3.1,68,0.00,,,0.00,WUHU216WMR968SP,2013-01-10 10:35:00,
2013-01-10 02:40:00,53.6,43.4,30.07,ESE,114,0.0,3.1,68,0.00,,,0.00,WUHU216WMR968SP,2013-01-10 10:40:00,
2013-01-10 02:45:00,53.6,43.4,30.07,ESE,114,0.0,0.0,68,0.00,,,0.00,WUHU216WMR968SP,2013-01-10 10:45:00,
2013-01-10 02:50:00,53.6,43.8,30.07,ESE,107,0.0,2.7,69,0.00,,,0.00,WUHU216WMR968SP,2013-01-10 10:50:00,
2013-01-10 02:55:00,53.4,43.6,30.07,ESE,107,0.0,2.7,69,0.00,,,0.00,WUHU216WMR968SP,2013-01-10 10:55:00,
2013-01-10 03:00:00,53.4,43.6,30.07,ESE,107,0.0,0.0,69,0.00,,,0.00,WUHU216WMR968SP,2013-01-10 11:00:00,
2013-01-10 03:05:00,53.4,43.6,30.07,ESE,107,0.0,0.0,69,0.00,,,0.00,WUHU216WMR968SP,2013-01-10 11:05:00,
2013-01-10 03:10:00,53.4,44.0,30.07,ESE,107,0.0,0.0,70,0.00,,,0.00,WUHU216WMR968SP,2013-01-10 11:10:00,
2013-01-10 03:15:00,53.6,43.8,30.07,SE,128,0.0,3.1,69,0.00,,,0.00,WUHU216WMR968SP,2013-01-10 11:15:00,
2013-01-10 03:20:00,53.6,43.8,30.07,SE,128,0.0,3.1,69,0.00,,,0.00,WUHU216WMR968SP,2013-01-10 11:20:00,
2013-01-10 03:25:00,53.6,44.2,30.07,SE,128,0.0,2.7,70,0.00,,,0.00,WUHU216WMR968SP,2013-01-10 11:25:00,
2013-01-10 03:30:00,53.6,44.2,30.07,SE,128,0.0,0.0,70,0.00,,,0.00,WUHU216WMR968SP,2013-01-10 11:30:00,
2013-01-10 03:35:00,53.6,44.2,30.07,SSW,199,0.0,3.1,70,0.00,,,0.00,WUHU216WMR968SP,2013-01-10 11:35:00,
2013-01-10 03:40:00,53.6,44.2,30.07,South,175,0.0,4.5,70,0.00,,,0.00,WUHU216WMR968SP,2013-01-10 11:40:00,
2013-01-10 03:45:00,53.4,44.3,30.07,SSW,209,0.0,4.5,71,0.00,,,0.00,WUHU216WMR968SP,2013-01-10 11:45:00,
2013-01-10 03:50:00,53.4,44.7,30.07,South,189,2.2,4.0,72,0.00,,,0.00,WUHU216WMR968SP,2013-01-10 11:50:00,
2013-01-10 03:55:00,53.4,45.1,30.07,SSW,194,0.0,4.0,73,0.00,,,0.00,WUHU216WMR968SP,2013-01-10 11:55:00,
2013-01-10 04:00:00,53.4,45.1,30.07,ESE,116,0.0,3.1,73,0.00,,,0.00,WUHU216WMR968SP,2013-01-10 12:00:00,
2013-01-10 04:05:00,53.2,44.9,30.07,ESE,118,0.0,3.1,73,0.00,,,0.00,WUHU216WMR968SP,2013-01-10 12:05:00,
2013-01-10 04:10:00,53.2,45.2,30.07,ESE,118,0.0,2.7,74,0.00,,,0.00,WUHU216WMR968SP,2013-01-10 12:10:00,
2013-01-10 04:15:00,53.1,45.1,30.07,ESE,118,0.0,0.0,74,0.00,,,0.00,WUHU216WMR968SP,2013-01-10 12:15:00,
2013-01-10 04:20:00,53.1,45.5,30.04,ESE,115,0.0,0.0,75,0.00,,,0.00,WUHU216WMR968SP,2013-01-10 12:20:00,
2013-01-10 04:25:00,53.1,45.5,30.04,East,97,0.0,2.2,75,0.00,,,0.00,WUHU216WMR968SP,2013-01-10 12:25:00,
2013-01-10 04:30:00,52.9,45.6,30.04,East,97,0.0,2.2,76,0.00,,,0.00,WUHU216WMR968SP,2013-01-10 12:30:00,
2013-01-10 04:35:00,52.9,45.6,30.04,East,97,0.0,0.0,76,0.00,,,0.00,WUHU216WMR968SP,2013-01-10 12:35:00,
2013-01-10 04:40:00,52.7,45.4,30.04,East,97,0.0,0.0,76,0.00,,,0.00,WUHU216WMR968SP,2013-01-10 12:40:00,
2013-01-10 04:45:00,52.9,45.6,30.04,East,97,0.0,0.0,76,0.00,,,0.00,WUHU216WMR968SP,2013-01-10 12:45:00,
2013-01-10 04:50:00,52.9,45.6,30.04,East,97,0.0,0.0,76,0.00,,,0.00,WUHU216WMR968SP,2013-01-10 12:50:00,
2013-01-10 04:55:00,52.7,45.4,30.04,East,97,0.0,0.0,76,0.00,,,0.00,WUHU216WMR968SP,2013-01-10 12:55:00,
2013-01-10 05:00:00,52.7,45.8,30.04,East,97,0.0,0.0,77,0.00,,,0.00,WUHU216WMR968SP,2013-01-10 13:00:00,
2013-01-10 05:05:00,52.7,45.8,30.04,ESE,113,0.0,3.1,77,0.00,,,0.00,WUHU216WMR968SP,2013-01-10 13:05:00,
2013-01-10 05:10:00,52.7,45.8,30.04,ESE,113,0.0,3.6,77,0.00,,,0.00,WUHU216WMR968SP,2013-01-10 13:10:00,
2013-01-10 05:15:00,52.7,45.8,30.04,ESE,110,0.0,3.6,77,0.00,,,0.00,WUHU216WMR968SP,2013-01-10 13:15:00,
2013-01-10 05:20:00,52.7,45.8,30.04,South,189,0.0,3.6,77,0.00,,,0.00,WUHU216WMR968SP,2013-01-10 13:20:00,
2013-01-10 05:25:00,52.7,45.8,30.04,SE,128,4.0,5.8,77,0.00,,,0.00,WUHU216WMR968SP,2013-01-10 13:25:00,
2013-01-10 05:30:00,52.5,45.9,30.04,ESE,120,0.0,5.8,78,0.00,,,0.00,WUHU216WMR968SP,2013-01-10 13:30:00,
2013-01-10 05:35:00,52.5,45.9,30.04,ESE,111,0.0,4.9,78,0.00,,,0.00,WUHU216WMR968SP,2013-01-10 13:35:00,
2013-01-10 05:40:00,52.5,45.9,30.04,ESE,122,0.0,4.9,78,0.00,,,0.00,WUHU216WMR968SP,2013-01-10 13:40:00,
2013-01-10 05:45:00,52.3,46.0,30.04,SE,134,0.0,4.0,79,0.00,,,0.00,WUHU216WMR968SP,2013-01-10 13:45:00,
2013-01-10 05:50:00,52.3,46.0,30.04,SSW,200,0.0,3.6,79,0.00,,,0.00,WUHU216WMR968SP,2013-01-10 13:50:00,
2013-01-10 05:55:00,52.3,46.0,30.04,South,183,0.0,4.0,79,0.00,,,0.00,WUHU216WMR968SP,2013-01-10 13:55:00,
2013-01-10 06:00:00,52.3,46.4,30.04,SSW,205,2.7,4.0,80,0.00,,,0.00,WUHU216WMR968SP,2013-01-10 14:00:00,
2013-01-10 06:05:00,52.3,46.4,30.04,ESE,107,2.7,4.0,80,0.00,,,0.00,WUHU216WMR968SP,2013-01-10 14:05:00,
2013-01-10 06:10:00,52.3,46.4,30.04,ESE,119,0.0,4.0,80,0.00,,,0.00,WUHU216WMR968SP,2013-01-10 14:10:00,
2013-01-10 06:15:00,52.3,46.4,30.04,ESE,110,2.2,3.6,80,0.00,,,0.00,WUHU216WMR968SP,2013-01-10 14:15:00,
2013-01-10 06:20:00,52.3,46.4,30.04,SW,218,2.2,3.6,80,0.00,,,0.00,WUHU216WMR968SP,2013-01-10 14:20:00,
2013-01-10 06:25:00,52.3,46.4,30.04,East,100,2.2,4.0,80,0.00,,,0.00,WUHU216WMR968SP,2013-01-10 14:25:00,
2013-01-10 06:30:00,52.3,46.7,30.04,SSW,202,0.0,4.0,81,0.00,,,0.00,WUHU216WMR968SP,2013-01-10 14:30:00,
2013-01-10 06:35:00,52.3,46.7,30.04,SSW,202,0.0,3.1,81,0.00,,,0.00,WUHU216WMR968SP,2013-01-10 14:35:00,
2013-01-10 06:40:00,52.3,46.7,30.04,SE,146,0.0,0.0,81,0.00,,,0.00,WUHU216WMR968SP,2013-01-10 14:40:00,
2013-01-10 06:45:00,52.3,46.7,30.04,SSE,149,0.0,0.0,81,0.00,,,0.00,WUHU216WMR968SP,2013-01-10 14:45:00,
2013-01-10 06:50:00,52.3,46.7,30.01,SSW,194,0.0,2.2,81,0.00,,,0.00,WUHU216WMR968SP,2013-01-10 14:50:00,
2013-01-10 06:55:00,52.3,46.7,30.01,South,175,0.0,2.2,81,0.00,,,0.00,WUHU216WMR968SP,2013-01-10 14:55:00,
2013-01-10 07:00:00,52.5,47.2,30.01,ESE,111,0.0,3.1,82,0.00,,,0.00,WUHU216WMR968SP,2013-01-10 15:00:00,
2013-01-10 07:05:00,52.5,47.2,30.01,SW,223,3.6,5.8,82,0.00,,,0.00,WUHU216WMR968SP,2013-01-10 15:05:00,
2013-01-10 07:10:00,52.3,47.0,30.01,WSW,244,3.6,5.8,82,0.00,,,0.00,WUHU216WMR968SP,2013-01-10 15:10:00,
2013-01-10 07:15:00,52.2,46.9,30.01,SW,222,7.2,12.8,82,0.00,,,0.00,WUHU216WMR968SP,2013-01-10 15:15:00,
2013-01-10 07:20:00,51.4,44.5,30.01,SW,230,7.6,13.2,77,0.00,,,0.00,WUHU216WMR968SP,2013-01-10 15:20:00,
2013-01-10 07:25:00,50.7,41.7,30.01,WNW,294,4.5,13.2,71,0.00,,,0.00,WUHU216WMR968SP,2013-01-10 15:25:00,
2013-01-10 07:30:00,50.5,40.8,30.01,SW,226,4.9,12.8,69,0.00,,,0.00,WUHU216WMR968SP,2013-01-10 15:30:00,
2013-01-10 07:35:00,50.2,39.8,30.04,West,261,3.1,8.7,67,0.00,,,0.00,WUHU216WMR968SP,2013-01-10 15:35:00,
2013-01-10 07:40:00,50.2,39.8,30.04,WSW,243,7.2,10.5,67,0.00,,,0.00,WUHU216WMR968SP,2013-01-10 15:40:00,
2013-01-10 07:45:00,50.2,39.8,30.04,WSW,245,3.1,10.5,67,0.00,,,0.00,WUHU216WMR968SP,2013-01-10 15:45:00,
2013-01-10 07:50:00,50.0,39.6,30.01,WSW,245,7.6,8.7,67,0.00,,,0.00,WUHU216WMR968SP,2013-01-10 15:50:00,
2013-01-10 07:55:00,49.8,39.4,30.01,SW,219,5.4,8.7,67,0.00,,,0.00,WUHU216WMR968SP,2013-01-10 15:55:00,
2013-01-10 08:00:00,49.8,39.4,30.01,SW,232,4.9,11.0,67,0.00,,,0.00,WUHU216WMR968SP,2013-01-10 16:00:00,
2013-01-10 08:05:00,49.8,39.4,30.04,WSW,242,4.0,11.0,67,0.00,,,0.00,WUHU216WMR968SP,2013-01-10 16:05:00,
2013-01-10 08:10:00,49.5,39.1,30.04,West,278,2.7,8.7,67,0.00,,,0.00,WUHU216WMR968SP,2013-01-10 16:10:00,
2013-01-10 08:15:00,49.5,39.1,30.04,SW,230,3.1,5.4,67,0.00,,,0.00,WUHU216WMR968SP,2013-01-10 16:15:00,
2013-01-10 08:20:00,49.5,39.1,30.01,WNW,295,3.6,6.3,67,0.00,,,0.00,WUHU216WMR968SP,2013-01-10 16:20:00,
2013-01-10 08:25:00,49.6,39.2,30.01,SW,217,2.7,6.3,67,0.00,,,0.00,WUHU216WMR968SP,2013-01-10 16:25:00,
2013-01-10 08:30:00,49.6,39.2,30.01,South,188,0.0,6.3,67,0.00,,,0.00,WUHU216WMR968SP,2013-01-10 16:30:00,
2013-01-10 08:35:00,49.8,39.8,30.04,SSW,200,2.7,5.4,68,0.00,,,0.00,WUHU216WMR968SP,2013-01-10 16:35:00,
2013-01-10 08:40:00,49.8,39.8,30.04,SW,223,0.0,5.8,68,0.00,,,0.00,WUHU216WMR968SP,2013-01-10 16:40:00,
2013-01-10 08:45:00,50.0,39.6,30.04,SSW,196,2.2,5.8,67,0.00,,,0.00,WUHU216WMR968SP,2013-01-10 16:45:00,
2013-01-10 08:50:00,50.2,39.8,30.04,SSW,197,0.0,5.4,67,0.00,,,0.00,WUHU216WMR968SP,2013-01-10 16:50:00,
2013-01-10 08:55:00,50.5,40.1,30.04,South,184,2.7,4.0,67,0.00,,,0.00,WUHU216WMR968SP,2013-01-10 16:55:00,
2013-01-10 09:00:00,50.7,40.3,30.04,SE,134,2.7,5.4,67,0.00,,,0.00,WUHU216WMR968SP,2013-01-10 17:00:00,
2013-01-10 09:05:00,51.1,40.6,30.04,ESE,111,0.0,5.4,67,0.00,,,0.00,WUHU216WMR968SP,2013-01-10 17:05:00,
2013-01-10 09:10:00,51.4,40.9,30.04,South,175,2.7,5.4,67,0.00,,,0.00,WUHU216WMR968SP,2013-01-10 17:10:00,
2013-01-10 09:15:00,51.8,40.9,30.04,ESE,115,3.1,5.8,66,0.00,,,0.00,WUHU216WMR968SP,2013-01-10 17:15:00,
2013-01-10 09:20:00,52.0,41.1,30.04,ESE,119,3.1,5.8,66,0.00,,,0.00,WUHU216WMR968SP,2013-01-10 17:20:00,
2013-01-10 09:25:00,52.0,41.1,30.04,ESE,112,2.7,5.8,66,0.00,,,0.00,WUHU216WMR968SP,2013-01-10 17:25:00,
2013-01-10 09:30:00,52.2,41.3,30.04,SE,125,2.2,4.9,66,0.00,,,0.00,WUHU216WMR968SP,2013-01-10 17:30:00,
2013-01-10 09:35:00,52.5,41.6,30.04,WSW,257,4.5,6.3,66,0.00,,,0.00,WUHU216WMR968SP,2013-01-10 17:35:00,
2013-01-10 09:40:00,52.9,42.0,30.04,ESE,112,2.2,6.3,66,0.00,,,0.00,WUHU216WMR968SP,2013-01-10 17:40:00,
2013-01-10 09:45:00,53.2,41.9,30.04,SSW,196,3.6,5.8,65,0.00,,,0.00,WUHU216WMR968SP,2013-01-10 17:45:00,
2013-01-10 09:50:00,53.6,41.8,30.04,WSW,244,3.6,5.4,64,0.00,,,0.00,WUHU216WMR968SP,2013-01-10 17:50:00,
2013-01-10 09:55:00,53.8,40.8,30.04,SW,222,3.6,8.1,61,0.00,,,0.00,WUHU216WMR968SP,2013-01-10 17:55:00,
2013-01-10 10:00:00,54.0,41.0,30.04,SSW,195,5.8,8.1,61,0.00,,,0.00,WUHU216WMR968SP,2013-01-10 18:00:00,
2013-01-10 10:05:00,54.1,40.6,30.04,WSW,244,4.0,7.6,60,0.00,,,0.00,WUHU216WMR968SP,2013-01-10 18:05:00,
2013-01-10 10:10:00,54.5,41.0,30.04,SSW,207,3.6,6.3,60,0.00,,,0.00,WUHU216WMR968SP,2013-01-10 18:10:00,
2013-01-10 10:15:00,54.7,40.7,30.04,South,187,2.7,6.3,59,0.00,,,0.00,WUHU216WMR968SP,2013-01-10 18:15:00,
2013-01-10 10:20:00,55.0,41.0,30.04,SSW,192,5.4,5.8,59,0.00,,,0.00,WUHU216WMR968SP,2013-01-10 18:20:00,
2013-01-10 10:25:00,55.4,41.0,30.04,SW,230,5.4,6.7,58,0.00,,,0.00,WUHU216WMR968SP,2013-01-10 18:25:00,
2013-01-10 10:30:00,55.4,40.0,30.04,WSW,241,3.1,6.7,56,0.00,,,0.00,WUHU216WMR968SP,2013-01-10 18:30:00,
2013-01-10 10:35:00,55.2,39.8,30.01,WNW,294,6.3,8.7,56,0.00,,,0.00,WUHU216WMR968SP,2013-01-10 18:35:00,
2013-01-10 10:40:00,55.4,40.0,30.01,SW,220,2.7,8.7,56,0.00,,,0.00,WUHU216WMR968SP,2013-01-10 18:40:00,
2013-01-10 10:45:00,55.8,40.4,30.01,SSW,196,3.6,6.3,56,0.00,,,0.00,WUHU216WMR968SP,2013-01-10 18:45:00,
2013-01-10 10:50:00,55.9,40.5,30.01,WSW,243,3.1,8.1,56,0.00,,,0.00,WUHU216WMR968SP,2013-01-10 18:50:00,
2013-01-10 10:55:00,55.8,39.9,30.01,SSW,196,0.0,8.1,55,0.00,,,0.00,WUHU216WMR968SP,2013-01-10 18:55:00,
2013-01-10 11:00:00,55.9,40.5,30.01,WSW,248,3.1,5.4,56,0.00,,,0.00,WUHU216WMR968SP,2013-01-10 19:00:00,
2013-01-10 11:05:00,56.3,40.4,30.01,West,274,3.6,5.8,55,0.00,,,0.00,WUHU216WMR968SP,2013-01-10 19:05:00,
2013-01-10 11:10:00,56.1,40.2,30.01,WSW,238,4.0,6.3,55,0.00,,,0.00,WUHU216WMR968SP,2013-01-10 19:10:00,
2013-01-10 11:15:00,56.1,40.2,30.01,SSE,160,2.7,6.3,55,0.00,,,0.00,WUHU216WMR968SP,2013-01-10 19:15:00,
2013-01-10 11:20:00,56.5,39.1,30.01,NW,310,8.7,12.3,52,0.00,,,0.00,WUHU216WMR968SP,2013-01-10 19:20:00,
2013-01-10 11:25:00,56.3,37.9,30.01,NNW,335,4.0,12.3,50,0.00,,,0.00,WUHU216WMR968SP,2013-01-10 19:25:00,
2013-01-10 11:30:00,56.1,37.7,30.01,WNW,295,4.9,10.1,50,0.00,,,0.00,WUHU216WMR968SP,2013-01-10 19:30:00,
2013-01-10 11:35:00,55.9,37.5,30.01,SW,232,4.5,10.1,50,0.00,,,0.00,WUHU216WMR968SP,2013-01-10 19:35:00,
2013-01-10 11:40:00,55.9,37.5,30.01,NW,305,4.0,8.7,50,0.00,,,0.00,WUHU216WMR968SP,2013-01-10 19:40:00,
2013-01-10 11:45:00,55.9,35.9,30.01,SW,216,4.0,11.0,47,0.00,,,0.00,WUHU216WMR968SP,2013-01-10 19:45:00,
2013-01-10 11:50:00,55.8,35.8,29.98,WNW,293,4.5,11.0,47,0.00,,,0.00,WUHU216WMR968SP,2013-01-10 19:50:00,
2013-01-10 11:55:00,55.6,35.6,29.98,West,263,3.6,9.2,47,0.00,,,0.00,WUHU216WMR968SP,2013-01-10 19:55:00,
2013-01-10 12:00:00,55.9,35.9,29.98,WSW,242,4.5,10.5,47,0.00,,,0.00,WUHU216WMR968SP,2013-01-10 20:00:00,
2013-01-10 12:05:00,56.1,36.1,29.98,SSW,207,6.7,13.2,47,0.00,,,0.00,WUHU216WMR968SP,2013-01-10 20:05:00,
2013-01-10 12:10:00,56.5,36.5,29.98,NW,310,4.5,13.2,47,0.00,,,0.00,WUHU216WMR968SP,2013-01-10 20:10:00,
2013-01-10 12:15:00,56.7,36.6,29.98,WNW,303,3.1,10.5,47,0.00,,,0.00,WUHU216WMR968SP,2013-01-10 20:15:00,
2013-01-10 12:20:00,57.2,37.1,29.98,WNW,297,7.2,8.3,47,0.00,,,0.00,WUHU216WMR968SP,2013-01-10 20:20:00,
2013-01-10 12:25:00,57.0,36.9,29.98,SSW,212,5.4,11.0,47,0.00,,,0.00,WUHU216WMR968SP,2013-01-10 20:25:00,
2013-01-10 12:30:00,57.4,37.3,29.98,West,280,7.6,11.0,47,0.00,,,0.00,WUHU216WMR968SP,2013-01-10 20:30:00,
2013-01-10 12:35:00,57.4,37.3,29.98,WSW,253,5.4,11.4,47,0.00,,,0.00,WUHU216WMR968SP,2013-01-10 20:35:00,
2013-01-10 12:40:00,57.6,37.5,29.98,WSW,239,7.6,11.4,47,0.00,,,0.00,WUHU216WMR968SP,2013-01-10 20:40:00,
2013-01-10 12:45:00,57.9,37.7,29.98,WSW,249,6.7,11.0,47,0.00,,,0.00,WUHU216WMR968SP,2013-01-10 20:45:00,
2013-01-10 12:50:00,57.7,37.6,29.95,WSW,257,7.2,11.0,47,0.00,,,0.00,WUHU216WMR968SP,2013-01-10 20:50:00,
2013-01-10 12:55:00,57.7,37.6,29.95,NW,313,10.1,15.9,47,0.00,,,0.00,WUHU216WMR968SP,2013-01-10 20:55:00,
2013-01-10 13:00:00,57.7,37.6,29.95,WNW,299,6.7,15.9,47,0.00,,,0.00,WUHU216WMR968SP,2013-01-10 21:00:00,
2013-01-10 13:05:00,57.9,37.7,29.95,WSW,247,5.8,15.4,47,0.00,,,0.00,WUHU216WMR968SP,2013-01-10 21:05:00,
2013-01-10 13:10:00,57.6,37.5,29.95,SW,223,6.3,15.4,47,0.00,,,0.00,WUHU216WMR968SP,2013-01-10 21:10:00,
2013-01-10 13:15:00,57.6,37.5,29.95,WSW,249,6.3,12.8,47,0.00,,,0.00,WUHU216WMR968SP,2013-01-10 21:15:00,
2013-01-10 13:20:00,57.4,37.3,29.95,SW,216,6.3,12.8,47,0.00,,,0.00,WUHU216WMR968SP,2013-01-10 21:20:00,
2013-01-10 13:25:00,57.4,37.3,29.95,SSW,199,5.8,15.9,47,0.00,,,0.00,WUHU216WMR968SP,2013-01-10 21:25:00,
2013-01-10 13:30:00,57.6,37.5,29.95,WNW,294,5.8,15.9,47,0.00,,,0.00,WUHU216WMR968SP,2013-01-10 21:30:00,
2013-01-10 13:35:00,57.4,37.3,29.95,WNW,301,4.9,12.8,47,0.00,,,0.00,WUHU216WMR968SP,2013-01-10 21:35:00,
2013-01-10 13:40:00,57.0,36.9,29.95,West,265,5.8,15.0,47,0.00,,,0.00,WUHU216WMR968SP,2013-01-10 21:40:00,
2013-01-10 13:45:00,56.8,36.7,29.95,West,265,12.3,20.1,47,0.00,,,0.00,WUHU216WMR968SP,2013-01-10 21:45:00,
2013-01-10 13:50:00,56.7,36.6,29.95,WNW,299,3.6,20.1,47,0.00,,,0.00,WUHU216WMR968SP,2013-01-10 21:50:00,
2013-01-10 13:55:00,57.0,36.9,29.95,WNW,293,8.1,12.8,47,0.00,,,0.00,WUHU216WMR968SP,2013-01-10 21:55:00,
2013-01-10 14:00:00,56.8,36.7,29.95,SW,235,8.3,12.8,47,0.00,,,0.00,WUHU216WMR968SP,2013-01-10 22:00:00,
2013-01-10 14:05:00,57.0,36.9,29.95,West,260,11.9,14.5,47,0.00,,,0.00,WUHU216WMR968SP,2013-01-10 22:05:00,
2013-01-10 14:10:00,56.8,36.7,29.95,NW,305,5.8,14.5,47,0.00,,,0.00,WUHU216WMR968SP,2013-01-10 22:10:00,
2013-01-10 14:15:00,56.8,36.7,29.95,NW,316,7.6,14.1,47,0.00,,,0.00,WUHU216WMR968SP,2013-01-10 22:15:00,
2013-01-10 14:21:00,56.8,36.7,29.98,WSW,258,6.3,14.1,47,0.00,,,0.00,WUHU216WMR968SP,2013-01-10 22:21:00,
2013-01-10 14:26:00,56.8,36.7,29.98,NNW,332,8.7,13.2,47,0.00,,,0.00,WUHU216WMR968SP,2013-01-10 22:26:00,
2013-01-10 14:31:00,56.8,36.7,29.98,West,265,8.1,13.2,47,0.00,,,0.00,WUHU216WMR968SP,2013-01-10 22:31:00,
2013-01-10 14:36:00,56.8,36.7,29.98,NW,319,5.4,11.9,47,0.00,,,0.00,WUHU216WMR968SP,2013-01-10 22:36:00,
2013-01-10 14:41:00,56.8,36.7,29.98,WSW,246,7.2,11.0,47,0.00,,,0.00,WUHU216WMR968SP,2013-01-10 22:41:00,
2013-01-10 14:46:00,56.8,36.7,29.98,WSW,254,4.9,9.6,47,0.00,,,0.00,WUHU216WMR968SP,2013-01-10 22:46:00,
2013-01-10 14:51:00,56.7,36.6,29.98,WNW,300,6.7,11.0,47,0.00,,,0.00,WUHU216WMR968SP,2013-01-10 22:51:00,
2013-01-10 14:56:00,56.5,36.5,29.98,West,266,9.2,11.0,47,0.00,,,0.00,WUHU216WMR968SP,2013-01-10 22:56:00,
2013-01-10 15:01:00,56.5,36.5,29.98,WSW,237,4.5,11.0,47,0.00,,,0.00,WUHU216WMR968SP,2013-01-10 23:01:00,
2013-01-10 15:06:00,56.5,36.5,29.98,WNW,299,4.5,10.5,47,0.00,,,0.00,WUHU216WMR968SP,2013-01-10 23:06:00,
2013-01-10 15:11:00,56.7,36.6,29.98,NNW,334,4.5,10.1,47,0.00,,,0.00,WUHU216WMR968SP,2013-01-10 23:11:00,
2013-01-10 15:16:00,56.7,36.6,29.98,NW,320,6.3,10.1,47,0.00,,,0.00,WUHU216WMR968SP,2013-01-10 23:16:00,
2013-01-10 15:21:00,56.5,36.5,29.98,North,349,4.0,8.3,47,0.00,,,0.00,WUHU216WMR968SP,2013-01-10 23:21:00,
2013-01-10 15:26:00,56.7,36.6,29.98,WNW,297,6.3,8.7,47,0.00,,,0.00,WUHU216WMR968SP,2013-01-10 23:26:00,
2013-01-10 15:31:00,56.5,36.5,29.98,WSW,248,4.9,8.7,47,0.00,,,0.00,WUHU216WMR968SP,2013-01-10 23:31:00,
2013-01-10 15:36:00,56.1,36.1,29.98,West,280,5.8,11.0,47,0.00,,,0.00,WUHU216WMR968SP,2013-01-10 23:36:00,
2013-01-10 15:41:00,55.8,35.8,29.98,NW,308,3.1,11.0,47,0.00,,,0.00,WUHU216WMR968SP,2013-01-10 23:41:00,
2013-01-10 15:46:00,55.8,35.8,29.98,NW,304,6.7,10.1,47,0.00,,,0.00,WUHU216WMR968SP,2013-01-10 23:46:00,
2013-01-10 15:51:00,55.8,35.8,29.98,WNW,287,4.0,10.1,47,0.00,,,0.00,WUHU216WMR968SP,2013-01-10 23:51:00,
2013-01-10 15:56:00,55.8,35.8,29.98,NW,305,5.8,10.1,47,0.00,,,0.00,WUHU216WMR968SP,2013-01-10 23:56:00,
2013-01-10 16:01:00,55.6,35.6,29.98,North,2,5.8,10.1,47,0.00,,,0.00,WUHU216WMR968SP,2013-01-11 00:01:00,
2013-01-10 16:06:00,55.2,35.8,29.98,WSW,246,6.7,8.7,48,0.00,,,0.00,WUHU216WMR968SP,2013-01-11 00:06:00,
2013-01-10 16:11:00,55.0,35.6,29.98,NW,325,4.0,10.1,48,0.00,,,0.00,WUHU216WMR968SP,2013-01-11 00:11:00,
2013-01-10 16:16:00,54.9,35.5,29.98,NW,312,3.6,10.1,48,0.00,,,0.00,WUHU216WMR968SP,2013-01-11 00:16:00,
2013-01-10 16:21:00,54.7,35.3,29.98,NW,324,3.6,7.6,48,0.00,,,0.00,WUHU216WMR968SP,2013-01-11 00:21:00,
2013-01-10 16:26:00,54.5,35.2,29.98,NW,311,5.8,8.3,48,0.00,,,0.00,WUHU216WMR968SP,2013-01-11 00:26:00,
2013-01-10 16:31:00,54.3,35.0,29.98,NNW,338,4.5,8.3,48,0.00,,,0.00,WUHU216WMR968SP,2013-01-11 00:31:00,
2013-01-10 16:36:00,54.0,34.7,29.98,WSW,257,3.6,6.7,48,0.00,,,0.00,WUHU216WMR968SP,2013-01-11 00:36:00,
2013-01-10 16:41:00,53.8,34.5,29.98,NNW,345,2.7,6.7,48,0.00,,,0.00,WUHU216WMR968SP,2013-01-11 00:41:00,
2013-01-10 16:46:00,53.6,34.3,29.98,NW,311,2.2,6.3,48,0.00,,,0.00,WUHU216WMR968SP,2013-01-11 00:46:00,
2013-01-10 16:51:00,53.1,33.9,29.98,NW,313,0.0,5.4,48,0.00,,,0.00,WUHU216WMR968SP,2013-01-11 00:51:00,
2013-01-10 16:56:00,52.9,33.7,29.98,NW,304,2.2,4.0,48,0.00,,,0.00,WUHU216WMR968SP,2013-01-11 00:56:00,
2013-01-10 17:01:00,52.5,33.3,29.98,NW,307,3.1,4.9,48,0.00,,,0.00,WUHU216WMR968SP,2013-01-11 01:01:00,
2013-01-10 17:06:00,52.2,33.0,29.98,NW,313,2.2,4.9,48,0.00,,,0.00,WUHU216WMR968SP,2013-01-11 01:06:00,
2013-01-10 17:11:00,51.8,32.7,29.98,NW,318,0.0,3.1,48,0.00,,,0.00,WUHU216WMR968SP,2013-01-11 01:11:00,
2013-01-10 17:16:00,51.4,32.8,29.98,NW,314,0.0,3.1,49,0.00,,,0.00,WUHU216WMR968SP,2013-01-11 01:16:00,
2013-01-10 17:21:00,50.9,32.4,30.01,NW,317,2.2,3.1,49,0.00,,,0.00,WUHU216WMR968SP,2013-01-11 01:21:00,
2013-01-10 17:26:00,50.5,32.0,30.01,NNW,329,0.0,3.1,49,0.00,,,0.00,WUHU216WMR968SP,2013-01-11 01:26:00,
2013-01-10 17:31:00,50.2,31.7,30.01,NNW,329,0.0,3.1,49,0.00,,,0.00,WUHU216WMR968SP,2013-01-11 01:31:00,
2013-01-10 17:36:00,49.8,31.4,30.01,NNW,334,0.0,3.1,49,0.00,,,0.00,WUHU216WMR968SP,2013-01-11 01:36:00,
2013-01-10 17:41:00,49.6,31.2,30.01,NW,324,2.7,4.0,49,0.00,,,0.00,WUHU216WMR968SP,2013-01-11 01:41:00,
2013-01-10 17:46:00,49.6,31.2,30.01,NW,323,2.7,4.0,49,0.00,,,0.00,WUHU216WMR968SP,2013-01-11 01:46:00,
2013-01-10 17:51:00,49.5,31.1,30.01,NW,310,3.1,4.9,49,0.00,,,0.00,WUHU216WMR968SP,2013-01-11 01:51:00,
2013-01-10 17:56:00,49.5,31.1,30.01,NW,319,4.5,6.7,49,0.00,,,0.00,WUHU216WMR968SP,2013-01-11 01:56:00,
2013-01-10 18:01:00,49.8,31.4,30.01,NNW,328,3.1,6.7,49,0.00,,,0.00,WUHU216WMR968SP,2013-01-11 02:01:00,
2013-01-10 18:06:00,49.6,31.2,30.01,NW,310,2.7,5.8,49,0.00,,,0.00,WUHU216WMR968SP,2013-01-11 02:06:00,
2013-01-10 18:11:00,49.6,31.2,30.01,NW,315,3.6,5.8,49,0.00,,,0.00,WUHU216WMR968SP,2013-01-11 02:11:00,
2013-01-10 18:16:00,49.3,30.9,30.01,NW,322,3.6,5.4,49,0.00,,,0.00,WUHU216WMR968SP,2013-01-11 02:16:00,
2013-01-10 18:21:00,49.1,30.7,30.04,NW,319,3.1,5.4,49,0.00,,,0.00,WUHU216WMR968SP,2013-01-11 02:21:00,
2013-01-10 18:26:00,49.1,30.7,30.04,NNW,329,3.6,6.3,49,0.00,,,0.00,WUHU216WMR968SP,2013-01-11 02:26:00,
2013-01-10 18:31:00,48.9,30.5,30.04,NW,323,3.1,6.3,49,0.00,,,0.00,WUHU216WMR968SP,2013-01-11 02:31:00,
2013-01-10 18:36:00,48.7,30.3,30.04,NW,317,2.7,4.9,49,0.00,,,0.00,WUHU216WMR968SP,2013-01-11 02:36:00,
2013-01-10 18:41:00,48.7,30.3,30.04,NW,306,3.1,5.4,49,0.00,,,0.00,WUHU216WMR968SP,2013-01-11 02:41:00,
2013-01-10 18:46:00,48.9,30.5,30.04,WNW,299,4.5,5.8,49,0.00,,,0.00,WUHU216WMR968SP,2013-01-11 02:46:00,
2013-01-10 18:51:00,48.9,30.5,30.04,NW,319,2.7,5.8,49,0.00,,,0.00,WUHU216WMR968SP,2013-01-11 02:51:00,
2013-01-10 18:56:00,48.9,30.5,30.04,NNW,331,4.5,5.8,49,0.00,,,0.00,WUHU216WMR968SP,2013-01-11 02:56:00,
2013-01-10 19:01:00,48.7,30.3,30.04,NW,324,4.0,8.1,49,0.00,,,0.00,WUHU216WMR968SP,2013-01-11 03:01:00,
2013-01-10 19:06:00,48.6,30.2,30.04,NW,306,3.1,8.1,49,0.00,,,0.00,WUHU216WMR968SP,2013-01-11 03:06:00,
2013-01-10 19:11:00,48.4,30.1,30.04,WNW,298,4.0,5.8,49,0.00,,,0.00,WUHU216WMR968SP,2013-01-11 03:11:00,
2013-01-10 19:16:00,48.4,30.1,30.04,NW,315,4.5,6.7,49,0.00,,,0.00,WUHU216WMR968SP,2013-01-11 03:16:00,
2013-01-10 19:21:00,48.4,30.1,30.04,NW,326,2.7,6.7,49,0.00,,,0.00,WUHU216WMR968SP,2013-01-11 03:21:00,
2013-01-10 19:26:00,48.2,29.9,30.04,NW,320,3.6,5.8,49,0.00,,,0.00,WUHU216WMR968SP,2013-01-11 03:26:00,
2013-01-10 19:31:00,48.0,29.7,30.04,NW,315,3.6,5.4,49,0.00,,,0.00,WUHU216WMR968SP,2013-01-11 03:31:00,
2013-01-10 19:36:00,48.0,29.7,30.07,NW,311,4.9,6.3,49,0.00,,,0.00,WUHU216WMR968SP,2013-01-11 03:36:00,
2013-01-10 19:41:00,48.0,29.7,30.07,WNW,300,5.4,7.6,49,0.00,,,0.00,WUHU216WMR968SP,2013-01-11 03:41:00,
2013-01-10 19:46:00,48.0,29.7,30.07,NW,318,4.9,7.6,49,0.00,,,0.00,WUHU216WMR968SP,2013-01-11 03:46:00,
2013-01-10 19:51:00,48.0,29.7,30.07,NW,316,4.5,8.1,49,0.00,,,0.00,WUHU216WMR968SP,2013-01-11 03:51:00,
2013-01-10 19:56:00,48.0,29.7,30.07,NNW,335,5.8,8.3,49,0.00,,,0.00,WUHU216WMR968SP,2013-01-11 03:56:00,
2013-01-10 20:01:00,48.0,29.7,30.07,NW,307,4.9,8.3,49,0.00,,,0.00,WUHU216WMR968SP,2013-01-11 04:01:00,
2013-01-10 20:06:00,48.2,29.9,30.07,NW,313,4.9,8.3,49,0.00,,,0.00,WUHU216WMR968SP,2013-01-11 04:06:00,
2013-01-10 20:11:00,48.2,29.9,30.07,WNW,297,6.3,8.3,49,0.00,,,0.00,WUHU216WMR968SP,2013-01-11 04:11:00,
2013-01-10 20:16:00,48.0,29.7,30.07,NW,306,3.1,8.3,49,0.00,,,0.00,WUHU216WMR968SP,2013-01-11 04:16:00,
2013-01-10 20:21:00,47.7,29.4,30.07,NW,319,4.5,7.2,49,0.00,,,0.00,WUHU216WMR968SP,2013-01-11 04:21:00,
2013-01-10 20:26:00,47.5,29.2,30.07,NW,307,4.0,7.2,49,0.00,,,0.00,WUHU216WMR968SP,2013-01-11 04:26:00,
2013-01-10 20:31:00,47.3,29.0,30.07,WNW,301,3.6,8.1,49,0.00,,,0.00,WUHU216WMR968SP,2013-01-11 04:31:00,
2013-01-10 20:36:00,46.9,28.7,30.10,NW,313,4.5,8.1,49,0.00,,,0.00,WUHU216WMR968SP,2013-01-11 04:36:00,
2013-01-10 20:41:00,46.6,28.4,30.10,NNW,340,4.5,6.3,49,0.00,,,0.00,WUHU216WMR968SP,2013-01-11 04:41:00,
2013-01-10 20:46:00,46.4,28.2,30.10,NW,313,4.0,6.3,49,0.00,,,0.00,WUHU216WMR968SP,2013-01-11 04:46:00,
2013-01-10 20:51:00,46.2,28.5,30.10,WNW,302,3.6,6.3,50,0.00,,,0.00,WUHU216WMR968SP,2013-01-11 04:51:00,
2013-01-10 20:56:00,46.2,28.5,30.10,NNW,342,3.1,5.8,50,0.00,,,0.00,WUHU216WMR968SP,2013-01-11 04:56:00,
2013-01-10 21:02:00,46.2,28.5,30.10,NW,305,3.6,5.8,50,0.00,,,0.00,WUHU216WMR968SP,2013-01-11 05:02:00,
2013-01-10 21:07:00,46.4,28.2,30.10,NW,320,5.4,8.3,49,0.00,,,0.00,WUHU216WMR968SP,2013-01-11 05:07:00,
2013-01-10 21:12:00,46.4,28.2,30.10,WNW,299,3.6,8.3,49,0.00,,,0.00,WUHU216WMR968SP,2013-01-11 05:12:00,
2013-01-10 21:17:00,46.4,28.2,30.10,NW,322,3.1,8.1,49,0.00,,,0.00,WUHU216WMR968SP,2013-01-11 05:17:00,
2013-01-10 21:22:00,46.4,28.2,30.10,WNW,303,4.0,8.1,49,0.00,,,0.00,WUHU216WMR968SP,2013-01-11 05:22:00,
2013-01-10 21:27:00,46.2,28.5,30.10,NW,307,3.1,8.3,50,0.00,,,0.00,WUHU216WMR968SP,2013-01-11 05:27:00,
2013-01-10 21:32:00,46.4,28.2,30.10,NW,306,4.0,8.3,49,0.00,,,0.00,WUHU216WMR968SP,2013-01-11 05:32:00,
2013-01-10 21:37:00,46.4,28.2,30.10,West,272,3.1,7.6,49,0.00,,,0.00,WUHU216WMR968SP,2013-01-11 05:37:00,
2013-01-10 21:42:00,46.4,28.2,30.10,WNW,284,4.9,8.3,49,0.00,,,0.00,WUHU216WMR968SP,2013-01-11 05:42:00,
2013-01-10 21:47:00,46.2,28.5,30.10,NNW,338,4.0,8.7,50,0.00,,,0.00,WUHU216WMR968SP,2013-01-11 05:47:00,
2013-01-10 21:52:00,46.0,28.4,30.13,WNW,303,4.9,8.7,50,0.00,,,0.00,WUHU216WMR968SP,2013-01-11 05:52:00,
2013-01-10 21:57:00,46.0,28.4,30.13,WNW,299,7.2,10.1,50,0.00,,,0.00,WUHU216WMR968SP,2013-01-11 05:57:00,
2013-01-10 22:02:00,45.9,28.3,30.13,West,280,4.9,10.1,50,0.00,,,0.00,WUHU216WMR968SP,2013-01-11 06:02:00,
2013-01-10 22:07:00,45.9,28.3,30.13,NW,325,4.0,7.2,50,0.00,,,0.00,WUHU216WMR968SP,2013-01-11 06:07:00,
2013-01-10 22:12:00,45.7,28.1,30.13,WNW,285,4.9,8.3,50,0.00,,,0.00,WUHU216WMR968SP,2013-01-11 06:12:00,
2013-01-10 22:17:00,45.5,27.9,30.13,NNW,328,3.6,8.3,50,0.00,,,0.00,WUHU216WMR968SP,2013-01-11 06:17:00,
2013-01-10 22:22:00,45.5,27.9,30.13,NW,305,4.5,6.3,50,0.00,,,0.00,WUHU216WMR968SP,2013-01-11 06:22:00,
2013-01-10 22:27:00,45.5,27.9,30.13,NW,315,2.7,6.3,50,0.00,,,0.00,WUHU216WMR968SP,2013-01-11 06:27:00,
2013-01-10 22:32:00,45.1,27.5,30.13,WNW,285,4.0,5.8,50,0.00,,,0.00,WUHU216WMR968SP,2013-01-11 06:32:00,
2013-01-10 22:37:00,45.1,27.5,30.13,NW,313,3.6,7.2,50,0.00,,,0.00,WUHU216WMR968SP,2013-01-11 06:37:00,
2013-01-10 22:42:00,45.0,27.4,30.13,WNW,301,3.1,7.2,50,0.00,,,0.00,WUHU216WMR968SP,2013-01-11 06:42:00,
2013-01-10 22:47:00,45.0,27.4,30.13,NW,315,3.1,7.2,50,0.00,,,0.00,WUHU216WMR968SP,2013-01-11 06:47:00,
2013-01-10 22:52:00,44.6,27.1,30.13,NW,313,2.7,7.2,50,0.00,,,0.00,WUHU216WMR968SP,2013-01-11 06:52:00,
2013-01-10 22:57:00,44.2,26.7,30.13,WNW,297,3.1,4.9,50,0.00,,,0.00,WUHU216WMR968SP,2013-01-11 06:57:00,
2013-01-10 23:02:00,44.2,26.7,30.13,NW,308,3.6,5.8,50,0.00,,,0.00,WUHU216WMR968SP,2013-01-11 07:02:00,
2013-01-10 23:08:00,44.2,26.7,30.13,NW,309,2.2,5.8,50,0.00,,,0.00,WUHU216WMR968SP,2013-01-11 07:08:00,
2013-01-10 23:13:00,44.1,26.6,30.13,NW,314,2.2,5.8,50,0.00,,,0.00,WUHU216WMR968SP,2013-01-11 07:13:00,
2013-01-10 23:18:00,43.9,26.4,30.13,NW,313,0.0,4.0,50,0.00,,,0.00,WUHU216WMR968SP,2013-01-11 07:18:00,
2013-01-10 23:23:00,43.7,26.2,30.13,NW,315,0.0,4.0,50,0.00,,,0.00,WUHU216WMR968SP,2013-01-11 07:23:00,
2013-01-10 23:28:00,43.3,25.9,30.13,NW,319,0.0,3.1,50,0.00,,,0.00,WUHU216WMR968SP,2013-01-11 07:28:00,
2013-01-10 23:33:00,43.0,25.6,30.13,NW,326,0.0,3.1,50,0.00,,,0.00,WUHU216WMR968SP,2013-01-11 07:33:00,
2013-01-10 23:38:00,43.0,25.6,30.16,NW,306,2.2,4.0,50,0.00,,,0.00,WUHU216WMR968SP,2013-01-11 07:38:00,
2013-01-10 23:43:00,43.0,25.6,30.16,NW,320,2.2,4.9,50,0.00,,,0.00,WUHU216WMR968SP,2013-01-11 07:43:00,
2013-01-10 23:48:00,43.0,25.6,30.16,NW,313,2.2,4.9,50,0.00,,,0.00,WUHU216WMR968SP,2013-01-11 07:48:00,
2013-01-10 23:53:00,43.0,25.6,30.16,NW,306,3.1,4.0,50,0.00,,,0.00,WUHU216WMR968SP,2013-01-11 07:53:00,
2013-01-10 23:58:00,42.8,25.4,30.16,West,272,3.1,4.0,50,0.00,,,0.00,WUHU216WMR968SP,2013-01-11 07:58:00,